Regional Weather Roundup
Issued by NWS Portland, ME

Current Version | Previous Version | Text Only | Print | Product List | Glossary Off
Versions: 1 2 3 4 5 6 7 8 9 10 11 12 13 14 15 16 17 18 19 20 21 22 23 24 25 26 27 28 29 30 31 32 33 34 35 36 37 38 39 40 41 42 43 44 45 46 47 48 49 50
000 ASUS41 KGYX 221610 RWRGYX WEATHER ROUNDUP FOR MAINE AND NEW HAMPSHIRE NATIONAL WEATHER SERVICE GRAY ME 1100 AM EST WED NOV 22 2017 MEZ002-005-006-010-012-015-018-020-021-024-026-027-029-221700- MAINE CITY SKY/WX TMP DP RH WIND PRES REMARKS PORTLAND LGT RAIN 43 40 89 VRB3 29.89F SANFORD LGT RAIN 42 41 96 CALM 29.88F BAR HARBOR LGT RAIN 51 48 89 S8 29.93F WISCASSET LGT RAIN 51 49 92 CALM 29.91F ROCKLAND LGT RAIN 51 50 96 S8 29.91F FRYEBURG LGT RAIN 33 33 100 CALM 29.90F LEWISTONAUBURN LGT RAIN 35 33 92 NW5 29.91F AUGUSTA LGT RAIN 41 37 86 CALM 29.89F WATERVILLE LGT RAIN 37 35 92 CALM 29.86F BANGOR CLOUDY 47 40 76 E5 29.91F GREENVILLE N/A 34 32 92 E6 29.85F MILLINOCKET CLOUDY 35 34 96 CALM 29.91F HOULTON CLOUDY 44 38 79 S7 29.91F PRESQUE ISLE CLOUDY 39 35 86 VRB7 29.92S FRENCHVILLE CLOUDY 34 30 85 CALM 29.89R CARIBOU CLOUDY 38 33 82 CALM 29.89F $$ NHZ002-005-008-009-011-012-014-221700- NEW HAMPSHIRE CITY SKY/WX TMP DP RH WIND PRES REMARKS PORTSMOUTH LGT RAIN 50 50 98 SE10 29.86F FOG ROCHESTER LGT RAIN 39 39 100 NW8 29.88S NASHUA RAIN 41 41 100 CALM 29.88F MANCHESTER LGT RAIN 43 42 97 NE3 29.87S FOG CONCORD RAIN 36 33 89 NW5 29.90F FOG LACONIA LGT RAIN 38 36 92 E3 29.90F FOG PLYMOUTH CLOUDY 30 29 96 CALM 29.91S BERLIN CLOUDY 32 29 88 CALM 29.87F WHITEFIELD CLOUDY 33 30 88 CALM 29.90S JAFFREY LGT RAIN 41 40 96 N3 29.87F FOG KEENE LGT RAIN 36 35 96 CALM 29.89F LEBANON LGT RAIN 35 31 85 CALM 29.91R MT WASHINGTON SNOW 25 25 100 SW21 N/A VSB 1/4 WCI 10 $$ VTZ005-007-008-221700- VERMONT CITY SKY/WX TMP DP RH WIND PRES REMARKS ST JOHNSBURY N/A 34 32 92 MISG 29.90S MONTPELIER LGT RAIN 36 36 100 CALM 29.94F BURLINGTON LGT SNOW 35 32 88 N6 29.98R VSB 1 $$ MAZ007-012-024-CTZ003-RIZ002-NYZ038-NYZ072-221700- SOUTHERN NEW ENGLAND AND NY CITY SKY/WX TMP DP RH WIND PRES REMARKS BOSTON LGT RAIN 51 51 100 SE7 29.88F FOG WORCESTER HVY RAIN 49 47 93 W7 29.85F FOG NANTUCKET LGT RAIN 55 55 100 S15 29.88F PROVIDENCE RAIN 53 53 100 SE6 29.87F FOG HARTFORD LGT RAIN 46 45 96 NW5 29.88F ALBANY LGT RAIN 42 37 82 W10 29.95S NEW YORK CITY CLOUDY 53 45 74 N6 29.88F $$ ANZ081-ANZ082-ANZ150-NHZ014-MEZ023>029-221700- COASTAL MARINE OBSERVATIONS STATION/POSITION TIME TEMP WIND PRES WAVE AIR SEA DIR/SP/G HT/PER (UTC) (F) (DEG/KT/KT) (MB) (FT/S) MOUNT DESERT ROC 1600 52 160/ 9/ 9 1013.9F MATINICUS ROCK 1500 52 210/ 11/ 12 1014.1F ISLE OF SHOALS 1500 50 130/ 10/ 11 1012.3F JEFFREYS LEDGE 1536 50 N/A 3/ 7 CASHES LEDGE BUO 1450 51 51 1014.5 4/ 6 GEORGES BANK BUO 1450 60 54 1017.0 6/ 8 $$ .............KEY.............. WCI - WIND CHILL TC - TEMPERATURE IN CELSIUS VSB - VISIBILITY IN MILES HX - HEAT INDEX FAIR- INDICATES FEW OR NO CLOUDS BELOW 12,000 FT, WITH NO SIGNIFICANT WEATHER AND/OR OBSTRUCTIONS TO VISIBILITY.

USA.gov is the U.S. government's official web portal to all federal, state and local government web resources and services.